Flag for United Kingdom Weather past 2 weeks in Horsham, England, United Kingdom

Now
63 °F

Passing clouds.


Feels Like: 63 °F
Forecast: 43 / 68 °F
Wind: 13 mph from Northwest

Location: London / Gatwick Airport

Current Time: Jul 30, 2015 at 2:14:59 PM

Latest Report: Jul 30, 2015 at 1:20 PM


Visibility: N/A

Pressure: 30.09 "Hg

Humidity: 49%

Dew point: 43 °F

Location of HorshamLocation

Historic Weather in Horsham — Graph

°F

Horsham temperature yesterday

Maximum temperature yesterday: 64 °F (at 1:20 PM)
Minimum temperature yesterday: 48 °F (at 4:20 AM)
Average temperature yesterday: 57 °F

Past Weeks' High & Low Weather Summary

 TemperatureHumidityPressure
High75 °F (Jul 16, 3:50 PM)100% (Jul 18, 4:20 AM)30.09 "Hg (Jul 18, 4:20 AM)
Low46 °F (Jul 23, 3:50 AM)36% (Jul 18, 1:50 PM)29.47 "Hg (Jul 26, 6:20 PM)
Average61 °F76%29.88 "Hg
* Reported Jul 15 1:20 PM — Jul 30 1:20 PM, Horsham, Weather by CustomWeather, © 2015

Note: Actual official high and low records may vary slightly from our data, if they occured in-between our weather recording intervals... More about our weather records

Advertising

Horsham weather history for previous 24 hours

 ConditionsComfort  
Time TempWeatherWind HumidityBarometerVisibility
1:20 PM
Thu, Jul 30
63 °FPassing clouds.13 mph49%30.09 "HgN/A
12:50 PM64 °FPassing clouds.12 mph49%30.09 "HgN/A
12:20 PM64 °FPassing clouds.12 mph49%30.09 "HgN/A
11:50 AM61 °FPassing clouds.15 mph55%30.09 "HgN/A
11:20 AM61 °FScattered clouds.12 mph52%30.07 "HgN/A
10:50 AM59 °FScattered clouds.12 mph59%30.07 "HgN/A
10:20 AM61 °FPassing clouds.12 mph59%30.07 "HgN/A
9:50 AM61 °FPassing clouds.10 mph59%30.07 "HgN/A
9:20 AM59 °FPassing clouds.12 mph63%30.07 "HgN/A
8:50 AM57 °FPassing clouds.12 mph67%30.07 "HgN/A
8:20 AM55 °FPassing clouds.8 mph77%30.07 "HgN/A
7:50 AM54 °FPassing clouds.8 mph82%30.04 "HgN/A
7:20 AM54 °FPassing clouds.8 mph77%30.04 "HgN/A
6:50 AM52 °FPassing clouds.7 mph82%30.04 "HgN/A
6:20 AM50 °FSunny.8 mph88%30.04 "Hg10 mi
5:50 AM50 °FClear.5 mph88%30.04 "Hg10 mi
5:20 AM46 °FClear.2 mph93%30.01 "Hg10 mi
4:50 AM48 °FClear.3 mph94%30.01 "Hg10 mi
4:20 AM48 °FCool.5 mph94%30.01 "HgN/A
3:50 AM50 °FCool.3 mph88%30.01 "HgN/A
3:20 AM50 °FCool.5 mph88%30.01 "HgN/A
2:50 AM52 °FCool.3 mph82%30.01 "HgN/A
2:20 AM52 °FCool.7 mph82%30.01 "HgN/A
1:50 AM52 °FPassing clouds.7 mph88%30.01 "HgN/A
1:20 AM52 °FPassing clouds.6 mph88%30.01 "HgN/A
12:50 AM52 °FCool.6 mph88%30.01 "HgN/A
12:20 AM50 °FCool.6 mph88%30.01 "HgN/A
11:50 PM
Wed, Jul 29
52 °FCool.8 mph82%29.98 "HgN/A
11:20 PM54 °FCool.8 mph82%29.98 "HgN/A
10:50 PM55 °FCool.9 mph77%29.98 "HgN/A
10:20 PM57 °FCool.9 mph72%29.98 "HgN/A
9:50 PM57 °FPassing clouds.8 mph72%29.95 "HgN/A
9:20 PM57 °FSunny.8 mph72%29.95 "Hg10 mi
8:50 PM57 °FSunny.8 mph77%29.95 "Hg10 mi
8:20 PM59 °FSunny.12 mph68%29.95 "Hg10 mi
7:50 PM59 °FPassing clouds.8 mph68%29.95 "HgN/A
7:20 PM59 °FPassing clouds.9 mph68%29.92 "HgN/A
6:50 PM61 °FPassing clouds.13 mph63%29.92 "HgN/A
6:20 PM63 °FPassing clouds.10 mph59%29.92 "HgN/A
5:50 PM61 °FPassing clouds.8 mph68%29.92 "HgN/A
5:20 PM61 °FPassing clouds.10 mph63%29.92 "HgN/A
4:50 PM63 °FPassing clouds.12 mph56%29.89 "HgN/A
4:20 PM63 °FPassing clouds.9 mph59%29.89 "HgN/A
3:50 PM61 °FPassing clouds.10 mph59%29.89 "HgN/A
3:20 PM63 °FBroken clouds.7 mph56%29.89 "HgN/A
2:50 PM63 °FScattered clouds.9 mph56%29.89 "HgN/A
2:20 PM64 °FPassing clouds.10 mph52%29.89 "HgN/A
Weather by CustomWeather, © 2015

See weather overviewHow to use our weather pages